Retour au catalogue

FENGYUN 1C DEB

ActifPO
NORAD 30128·DEBRIS·🇨🇳 China

Lancé May 10, 1999 depuis Taiyuan Satellite Launch Center

Loading…

Prochains Passages (prochaines 24 heures)

TLE

FraisSource: Space-Track

Époque: Sep 14, 2026, 08:28 UTC

1 30128U 99025SH  26257.35295741  .00009513  00000-0  21978-2 0  9994
2 30128  96.9874 214.1271 0098390 335.3188 177.4544 14.52400576 12916

Suivez FENGYUN 1C DEB en temps réel avec AllMySat

Download on the App Store